Weather History for Ogallala, NE

Change the Weather History Date:

Sunday, September 15, 2013

  Actual Average Record
Temperature  
Mean Temperature 64 °F -  
Max Temperature 68 °F 74 °F 97 °F (1955)
Min Temperature 58 °F 47 °F 26 °F (2000)
Degree Days  
Heating Degree Days 2    
Growing Degree Days 14 (Base 50)    
Moisture  
Dew Point 56 °F    
Average Humidity 78    
Maximum Humidity 91    
Minimum Humidity 58    
Precipitation  
Precipitation 0.35 in - - ()
Sea Level Pressure  
Sea Level Pressure 30.17 in    
Wind  
Wind Speed 11 mph (NE)    
Max Wind Speed 21 mph    
Max Gust Speed 28 mph    
Visibility 10 miles    
Events Rain , Thunderstorm    
Averages and records for this station are not official NWS values.
T = Trace of Precipitation, MM = Missing Value Source: NWS Daily Summary

Daily Weather History Graph

Daily Weather History Graph

Search for Another Location

Airport:

Trip Planner

Search our weather history database for the weather conditions in past years. The results will help you decide how hot, cold, wet, or windy it might be!

Date:

Astronomy

Sep. 15, 2013 Rise Set
Actual Time 6:27 AM MDT 6:55 PM MDT
Civil Twilight 6:00 AM MDT 7:23 PM MDT
Nautical Twilight 5:27 AM MDT 7:55 PM MDT
Astronomical Twilight 4:54 AM MDT 8:29 PM MDT
Moon 4:26 PM MDT (9/15) 2:06 AM MDT (9/15)
Length of Visible Light 13h 23m
Length of Day
12h 27m
Waxing Gibbous, 82% of the Moon is Illuminated
Sep 15
Waxing Gibbous
Sep 19
Full
Sep 26
Last Quarter
Oct 4
New
Oct 11
First Quarter

Hourly Weather History & Observations

Time (MDT) Temp. Dew Point Humidity Pressure Visibility Wind Dir Wind Speed Gust Speed Precip Events Conditions
12:15 AM 69.6 °F 61.9 °F 76% 29.96 in 10.0 mi NNE 5.8 mph - N/A Thunderstorm Thunderstorm
12:35 AM 68.5 °F 60.8 °F 76% 29.99 in 3.0 mi NW 5.8 mph - 0.02 in Rain , Thunderstorm Thunderstorms and Rain
12:55 AM 64.4 °F 61.2 °F 89% 30.00 in 4.0 mi NW 17.3 mph - 0.18 in Rain , Thunderstorm Thunderstorms and Rain
1:15 AM 63.5 °F 60.1 °F 89% 30.00 in 7.0 mi NW 11.5 mph - 0.03 in Rain Light Rain
1:35 AM 63.7 °F 60.3 °F 89% 30.00 in 10.0 mi NNW 10.4 mph - 0.04 in Rain Light Rain
1:55 AM 63.9 °F 60.4 °F 89% 30.00 in 10.0 mi North 5.8 mph - 0.06 in Rain Light Rain
2:15 AM 64.0 °F 60.6 °F 89% 30.00 in 7.0 mi North 4.6 mph - 0.02 in Rain Rain
2:35 AM 63.7 °F 61.0 °F 91% 30.00 in 10.0 mi Calm Calm - 0.04 in Rain Light Rain
2:55 AM 64.8 °F 61.9 °F 90% 30.00 in 10.0 mi NNE 10.4 mph - 0.05 in Rain Light Rain
3:15 AM 64.4 °F 61.7 °F 91% 30.00 in 10.0 mi NE 8.1 mph - N/A   Light Drizzle
3:35 AM 64.6 °F 61.7 °F 90% 30.01 in 10.0 mi NE 11.5 mph 17.3 mph N/A   Overcast
3:55 AM 64.4 °F 61.7 °F 91% 30.01 in 10.0 mi NE 15.0 mph 18.4 mph N/A   Light Drizzle
4:15 AM 63.7 °F 61.0 °F 91% 30.02 in 10.0 mi NE 15.0 mph - N/A   Light Drizzle
4:35 AM 63.1 °F 60.3 °F 90% 30.03 in 10.0 mi NE 17.3 mph - N/A   Overcast
4:55 AM 62.8 °F 60.1 °F 91% 30.03 in 10.0 mi NNE 12.7 mph 19.6 mph N/A   Overcast
5:15 AM 62.6 °F 59.5 °F 90% 30.04 in 10.0 mi NNE 13.8 mph 18.4 mph N/A   Overcast
5:35 AM 62.1 °F 59.0 °F 90% 30.04 in 10.0 mi NNE 16.1 mph - N/A   Overcast
5:55 AM 61.9 °F 58.5 °F 89% 30.05 in 10.0 mi NNE 20.7 mph 26.5 mph N/A   Overcast
6:15 AM 61.9 °F 58.1 °F 87% 30.06 in 10.0 mi NE 16.1 mph 25.3 mph N/A   Overcast
6:35 AM 61.7 °F 57.7 °F 87% 30.07 in 10.0 mi NE 15.0 mph - N/A   Overcast
6:55 AM 61.0 °F 57.6 °F 88% 30.09 in 10.0 mi NNE 19.6 mph 27.6 mph N/A   Overcast
7:15 AM 60.8 °F 56.5 °F 86% 30.10 in 10.0 mi NNE 18.4 mph 24.2 mph N/A   Overcast
7:35 AM 60.4 °F 56.3 °F 86% 30.11 in 10.0 mi NE 16.1 mph 21.9 mph N/A   Overcast
7:55 AM 60.1 °F 55.8 °F 86% 30.12 in 10.0 mi NE 17.3 mph 24.2 mph N/A   Overcast
8:15 AM 59.9 °F 55.8 °F 86% 30.13 in 10.0 mi NE 13.8 mph 18.4 mph N/A   Light Drizzle
8:35 AM 59.4 °F 56.3 °F 90% 30.14 in 10.0 mi NE 11.5 mph - 0.01 in Rain Rain
8:55 AM 59.4 °F 56.3 °F 90% 30.15 in 10.0 mi NE 12.7 mph 16.1 mph 0.05 in Rain Light Rain
9:15 AM 59.5 °F 56.5 °F 90% 30.16 in 10.0 mi NE 9.2 mph - 0.01 in   Drizzle
9:35 AM 59.9 °F 56.7 °F 89% 30.17 in 10.0 mi NE 9.2 mph - 0.01 in   Light Drizzle
9:55 AM 60.4 °F 57.2 °F 89% 30.18 in 10.0 mi ENE 6.9 mph - 0.01 in   Overcast
10:15 AM 61.2 °F 57.2 °F 87% 30.18 in 10.0 mi NE 15.0 mph 18.4 mph N/A   Overcast
10:35 AM 61.7 °F 56.3 °F 82% 30.20 in 10.0 mi ENE 13.8 mph 20.7 mph N/A   Overcast
10:55 AM 61.7 °F 55.2 °F 79% 30.20 in 10.0 mi NE 15.0 mph 21.9 mph N/A   Overcast
11:15 AM 61.2 °F 55.2 °F 81% 30.21 in 10.0 mi ENE 12.7 mph - N/A   Overcast
11:35 AM 62.4 °F 55.4 °F 78% 30.21 in 10.0 mi ENE 15.0 mph - N/A   Overcast
11:55 AM 62.4 °F 53.8 °F 73% 30.22 in 10.0 mi NE 13.8 mph - N/A   Overcast
12:15 PM 62.8 °F 53.8 °F 72% 30.22 in 10.0 mi East 13.8 mph - N/A   Overcast
12:35 PM 63.5 °F 54.1 °F 72% 30.22 in 10.0 mi NE 12.7 mph - N/A   Mostly Cloudy
12:55 PM 64.9 °F 54.1 °F 68% 30.23 in 10.0 mi ENE 13.8 mph 19.6 mph N/A   Mostly Cloudy
1:15 PM 65.1 °F 54.0 °F 67% 30.23 in 10.0 mi ENE 15.0 mph 19.6 mph N/A   Mostly Cloudy
1:35 PM 65.7 °F 54.0 °F 66% 30.22 in 10.0 mi ENE 15.0 mph 21.9 mph N/A   Mostly Cloudy
1:55 PM 66.4 °F 54.1 °F 65% 30.22 in 10.0 mi ENE 13.8 mph 17.3 mph N/A   Mostly Cloudy
2:15 PM 68.2 °F 54.1 °F 61% 30.22 in 10.0 mi NE 12.7 mph 20.7 mph N/A   Mostly Cloudy
2:35 PM 67.6 °F 53.6 °F 61% 30.22 in 10.0 mi East 15.0 mph 18.4 mph N/A   Mostly Cloudy
2:55 PM 68.2 °F 53.6 °F 60% 30.22 in 10.0 mi ENE 12.7 mph 17.3 mph N/A   Mostly Cloudy
3:15 PM 68.0 °F 52.9 °F 58% 30.22 in 10.0 mi NE 15.0 mph - N/A   Mostly Cloudy
3:35 PM 67.8 °F 52.9 °F 59% 30.22 in 10.0 mi NE 15.0 mph - N/A   Scattered Clouds
3:55 PM 67.5 °F 52.7 °F 59% 30.22 in 10.0 mi NE 11.5 mph 16.1 mph N/A   Scattered Clouds
4:15 PM 67.3 °F 52.9 °F 60% 30.23 in 10.0 mi ENE 13.8 mph - N/A   Scattered Clouds
4:35 PM 66.7 °F 52.3 °F 60% 30.23 in 10.0 mi ENE 12.7 mph - N/A   Scattered Clouds
4:55 PM 66.7 °F 53.2 °F 62% 30.23 in 10.0 mi East 10.4 mph - N/A   Scattered Clouds
5:15 PM 66.7 °F 52.5 °F 60% 30.23 in 10.0 mi East 11.5 mph - N/A   Mostly Cloudy
5:35 PM 66.7 °F 52.5 °F 60% 30.23 in 10.0 mi ENE 12.7 mph - N/A   Mostly Cloudy
5:55 PM 66.0 °F 52.9 °F 63% 30.23 in 10.0 mi ENE 9.2 mph - N/A   Scattered Clouds
6:15 PM 65.5 °F 52.3 °F 62% 30.24 in 10.0 mi East 10.4 mph - N/A   Clear
6:35 PM 64.8 °F 52.0 °F 63% 30.25 in 10.0 mi East 10.4 mph - N/A   Clear
6:55 PM 63.5 °F 52.7 °F 68% 30.25 in 10.0 mi East 9.2 mph - N/A   Clear
7:15 PM 62.8 °F 53.1 °F 71% 30.25 in 10.0 mi East 4.6 mph - N/A   Scattered Clouds
7:35 PM 62.1 °F 53.2 °F 73% 30.26 in 10.0 mi East 5.8 mph - N/A   Scattered Clouds
7:55 PM 61.0 °F 53.2 °F 76% 30.27 in 10.0 mi NE 9.2 mph - N/A   Mostly Cloudy
8:15 PM 60.6 °F 52.7 °F 75% 30.27 in 10.0 mi ENE 8.1 mph - N/A   Scattered Clouds
8:35 PM 59.7 °F 52.5 °F 77% 30.28 in 10.0 mi ENE 6.9 mph - N/A   Clear
8:55 PM 59.0 °F 52.3 °F 79% 30.29 in 10.0 mi ENE 5.8 mph - N/A   Scattered Clouds
9:15 PM 58.3 °F 52.0 °F 80% 30.29 in 10.0 mi ENE 4.6 mph - N/A   Mostly Cloudy
9:35 PM 58.5 °F 52.3 °F 80% 30.29 in 10.0 mi ENE 8.1 mph - N/A   Overcast
9:55 PM 59.0 °F 52.3 °F 79% 30.29 in 10.0 mi ENE 9.2 mph - N/A   Overcast
10:15 PM 59.0 °F 52.7 °F 80% 30.30 in 10.0 mi ENE 8.1 mph - N/A   Overcast
10:35 PM 59.2 °F 52.7 °F 79% 30.30 in 10.0 mi ENE 9.2 mph - N/A   Overcast
10:55 PM 59.0 °F 52.7 °F 80% 30.30 in 10.0 mi East 10.4 mph - N/A   Overcast
11:15 PM 59.0 °F 52.9 °F 80% 30.31 in 10.0 mi East 9.2 mph - N/A   Overcast
11:35 PM 59.0 °F 52.7 °F 80% 30.30 in 10.0 mi East 9.2 mph - N/A   Overcast
11:55 PM 58.8 °F 52.9 °F 81% 30.30 in 10.0 mi East 11.5 mph 16.1 mph N/A   Overcast